This is the latest recevied weather packets stored in our database for station/object N2XGL-1. If no packets are shown the sender has not sent any weather packets the latest 10 day(s).
| Time | Temp. | Humidity | Pressure | Rain* | Wind** | Luminosity | Snow |
|---|---|---|---|---|---|---|---|
| 1777625905 | 0.56° C | 84% | 1018.1 hPa | 0 mm | - | - | - |
| 1777625357 | 1.11° C | 84% | 1018.1 hPa | 0 mm | - | - | - |
| 1777624794 | 1.11° C | 85% | 1018.2 hPa | 0 mm | - | - | - |
| 1777624259 | 1.11° C | 85% | 1018.2 hPa | 0 mm | - | - | - |
| 1777623694 | 1.11° C | 85% | 1018.2 hPa | 0 mm | - | - | - |
| 1777623094 | 1.11° C | 85% | 1018.3 hPa | 0 mm | - | - | - |
| 1777621559 | 1.11° C | 85% | 1018.3 hPa | 0 mm | - | - | - |
| 1777620979 | 1.11° C | 84% | 1018.5 hPa | 0 mm | - | - | - |
| 1777620460 | 1.67° C | 83% | 1018.5 hPa | 0 mm | - | - | - |
| 1777619879 | 1.67° C | 83% | 1018.4 hPa | 0 mm | - | - | - |
| 1777618801 | 1.67° C | 83% | 1018.5 hPa | 0 mm | - | - | - |
| 1777618229 | 2.22° C | 83% | 1018.5 hPa | 0 mm | - | - | - |
| 1777617099 | 2.22° C | 83% | 1018.4 hPa | 0 mm | - | - | - |
| 1777616529 | 2.22° C | 83% | 1018.5 hPa | 0 mm | - | - | - |
| 1777615954 | 2.78° C | 82% | 1018.4 hPa | 0 mm | - | - | - |
| 1777615399 | 2.78° C | 81% | 1018.4 hPa | 0 mm | - | - | - |
| 1777614926 | 2.78° C | 81% | 1018.4 hPa | 0 mm | - | - | - |
| 1777614881 | 2.78° C | 81% | 1018.4 hPa | 0 mm | - | - | - |
| 1777614334 | 2.78° C | 81% | 1018.3 hPa | 0 mm | - | - | - |
| 1777613816 | 3.33° C | 79% | 1018.3 hPa | 0 mm | - | - | - |
| 1777613229 | 3.33° C | 79% | 1018.2 hPa | 0 mm | - | - | - |
| 1777612637 | 3.33° C | 78% | 1018.2 hPa | 0 mm | - | - | - |
| 1777612049 | 3.33° C | 77% | 1018.1 hPa | 0 mm | - | - | - |
| 1777610394 | 3.89° C | 75% | 1018.1 hPa | 0 mm | - | - | - |
| 1777609854 | 3.89° C | 76% | 1018.1 hPa | 0 mm | - | - | - |
* Rain latest hour (hover to see other rain measurements)
** Current wind speed in m/s (hover to see current wind gust speed)